EW5026 Weather Reports


Display with metric or nautical units.
time (UTC)temp
F
wind
direction
speed
MPH
gust
MPH
rain 1hr
in
rain 24hr
in
rain mn
in
humidity
%
barometer
mb
20260906111010 67 19 0.0 2.0 0.00 0.00 0.00 93 1015.0
20260906110509 67 19 1.0 2.0 0.00 0.00 0.00 93 1015.1
20260906110009 67 19 1.0 3.0 0.00 0.00 0.00 93 1015.0
20260906105508 67 19 1.0 3.0 0.00 0.00 0.00 93 1014.8
20260906105006 67 19 1.0 3.0 0.00 0.00 0.00 93 1014.8
20260906104507 67 19 2.0 3.0 0.00 0.00 0.00 92 1014.8
20260906104009 67 19 0.0 0.0 0.00 0.00 0.00 92 1014.7
20260906103505 68 39 0.0 0.0 0.00 0.00 0.00 92 1014.7
20260906103009 68 39 0.0 0.0 0.00 0.00 0.00 92 1014.6
20260906102504 68 39 0.0 3.0 0.00 0.00 0.00 92 1014.5
20260906102003 68 39 0.0 3.0 0.00 0.00 0.00 92 1014.5
20260906101504 68 39 1.0 3.0 0.00 0.00 0.00 92 1014.6
20260906101001 69 39 1.0 3.0 0.00 0.00 0.00 92 1014.6
20260906100503 69 39 2.0 4.0 0.00 0.00 0.00 92 1014.6
20260906100100 69 38 1.0 4.0 0.00 0.00 0.00 92 1014.5
20260906095601 69 18 2.0 4.0 0.00 0.00 0.00 92 1014.5
20260906095102 69 24 0.0 3.0 0.00 0.00 0.00 92 1014.4
20260906094609 69 36 0.0 0.0 0.00 0.00 0.00 92 1014.3
20260906094059 69 25 0.0 0.0 0.00 0.00 0.00 92 1014.2
20260906093559 69 26 0.0 0.0 0.00 0.00 0.00 92 1014.2
20260906093112 69 38 0.0 0.0 0.00 0.00 0.00 92 1014.3
20260906092602 69 22 0.0 0.0 0.00 0.00 0.00 92 1014.3
20260906092058 69 38 0.0 0.0 0.00 0.00 0.00 92 1014.3
20260906091559 69 38 0.0 0.0 0.00 0.00 0.00 92 1014.3
20260906091101 69 38 0.0 2.0 0.00 0.00 0.00 92 1014.2
20260906090557 70 38 0.0 2.0 0.00 0.00 0.00 92 1014.2
20260906090134 70 38 0.0 2.0 0.00 0.00 0.00 91 1014.2
20260906085559 70 38 0.0 2.0 0.00 0.00 0.00 91 1014.2
20260906085055 70 38 0.0 1.0 0.00 0.00 0.00 91 1014.1
20260906084600 70 38 0.0 0.0 0.00 0.00 0.00 91 1014.2
20260906084052 71 38 0.0 0.0 0.00 0.00 0.00 90 1014.2
20260906083552 71 38 0.0 3.0 0.00 0.00 0.00 90 1014.2
20260906083051 71 38 0.0 3.0 0.00 0.00 0.00 90 1014.1
20260906082550 72 23 0.0 3.0 0.00 0.00 0.00 90 1014.2
20260906082049 72 53 0.0 4.0 0.00 0.00 0.00 90 1014.2
20260906081549 72 44 1.0 4.0 0.00 0.00 0.00 90 1014.3
20260906081049 72 36 0.0 4.0 0.00 0.00 0.00 90 1014.3
20260906080549 72 26 0.0 4.0 0.00 0.00 0.00 90 1014.3
20260906080100 73 19 1.0 4.0 0.00 0.00 0.00 89 1014.3
20260906075548 73 42 0.0 4.0 0.00 0.00 0.00 89 1014.3
20260906075048 73 35 1.0 5.0 0.00 0.00 0.00 89 1014.3
20260906074553 73 35 1.0 5.0 0.00 0.00 0.00 89 1014.3
20260906074048 73 49 1.0 4.0 0.00 0.00 0.00 89 1014.3
20260906073551 73 32 2.0 4.0 0.00 0.00 0.00 89 1014.4
20260906073047 73 32 0.0 4.0 0.00 0.00 0.00 89 1014.4
20260906072547 73 30 1.0 4.0 0.00 0.00 0.00 89 1014.4
20260906072046 73 19 1.0 5.0 0.00 0.00 0.00 89 1014.4
20260906071546 73 34 1.0 5.0 0.00 0.00 0.00 89 1014.4
20260906071047 73 14 0.0 4.0 0.00 0.00 0.00 89 1014.4
20260906070547 73 36 1.0 4.0 0.00 0.00 0.00 89 1014.4
20260906070046 73 32 2.0 4.0 0.00 0.00 0.00 89 1014.4
20260906065546 73 44 2.0 4.0 0.00 0.00 0.00 89 1014.4
20260906065047 73 38 1.0 5.0 0.00 0.00 0.00 89 1014.4
20260906064548 73 16 1.0 5.0 0.00 0.00 0.00 89 1014.4
20260906064046 73 40 1.0 5.0 0.00 0.00 0.00 89 1014.4
20260906063545 73 29 2.0 5.0 0.00 0.00 0.00 89 1014.5
20260906063048 73 20 0.0 5.0 0.00 0.00 0.00 89 1014.5
20260906062544 73 30 2.0 5.0 0.00 0.00 0.00 90 1014.5
20260906062044 73 37 2.0 5.0 0.00 0.00 0.00 90 1014.4
20260906061549 73 12 2.0 5.0 0.00 0.00 0.00 90 1014.5
20260906061042 73 11 1.0 5.0 0.00 0.00 0.00 91 1014.4
20260906060545 73 34 1.0 4.0 0.00 0.00 0.00 91 1014.3
20260906060041 73 360 1.0 4.0 0.00 0.00 0.00 91 1014.3
20260906055541 73 10 1.0 4.0 0.00 0.00 0.00 91 1014.2
20260906055041 73 9 1.0 4.0 0.00 0.00 0.00 91 1014.2
20260906054544 73 355 0.0 4.0 0.00 0.00 0.00 91 1014.1
20260906054039 72 360 1.0 4.0 0.00 0.00 0.00 91 1014.1
20260906053538 72 346 1.0 4.0 0.00 0.00 0.00 91 1014.1
20260906053039 72 5 1.0 5.0 0.00 0.00 0.00 91 1014.1
20260906052541 72 351 2.0 5.0 0.00 0.00 0.00 91 1014.0
20260906052037 72 13 1.0 3.0 0.00 0.00 0.00 91 1013.9
20260906051539 72 350 0.0 3.0 0.00 0.00 0.00 92 1013.9
20260906051038 72 355 0.0 0.0 0.00 0.00 0.00 92 1013.9
20260906050536 72 344 0.0 0.0 0.00 0.00 0.00 92 1013.8
20260906050035 72 344 0.0 0.0 0.00 0.00 0.00 92 1013.9
20260906045532 72 28 0.0 0.0 0.00 0.00 0.00 91 1013.7
20260906045036 72 28 0.0 0.0 0.00 0.00 0.00 91 1013.7
20260906044533 71 28 0.0 0.0 0.00 0.00 0.00 91 1013.5
20260906044036 71 28 0.0 0.0 0.00 0.00 0.00 91 1013.6
20260906043531 71 28 0.0 0.0 0.00 0.00 0.00 91 1013.5
20260906043034 71 28 0.0 0.0 0.00 0.00 0.00 91 1013.4
20260906042532 71 28 0.0 0.0 0.00 0.00 0.00 91 1013.4
20260906042031 71 28 0.0 0.0 0.00 0.00 0.00 90 1013.4
20260906041543 71 28 0.0 1.0 0.00 0.00 0.00 90 1013.3
20260906041030 71 28 0.0 3.0 0.00 0.00 0.00 89 1013.2
20260906040529 71 36 0.0 3.0 0.00 0.00 0.00 89 1013.2
20260906040033 72 5 1.0 3.0 0.00 0.00 0.00 89 1013.2
20260906035531 72 355 1.0 3.0 0.00 0.00 0.00 88 1013.2
20260906035028 72 9 0.0 2.0 0.00 0.00 0.00 88 1013.1
20260906034534 72 11 0.0 2.0 0.00 0.00 0.00 87 1013.2
20260906034026 73 5 0.0 2.0 0.00 0.00 0.00 87 1013.2
20260906033527 73 355 0.0 2.0 0.00 0.00 0.00 87 1013.2
20260906033027 73 348 0.0 3.0 0.00 0.00 0.00 86 1013.3
20260906032526 73 21 0.0 5.0 0.00 0.00 0.00 86 1013.3
20260906032026 73 21 0.0 6.0 0.00 0.00 0.00 86 1013.2
20260906031530 73 355 2.0 6.0 0.00 0.00 0.00 86 1013.2
20260906031026 73 23 2.0 6.0 0.00 0.00 0.00 86 1013.2
20260906030527 73 5 3.0 7.0 0.00 0.00 0.00 86 1013.2
20260906030033 73 22 3.0 8.0 0.00 0.00 0.00 85 1013.2
20260906025525 73 12 4.0 9.0 0.00 0.00 0.00 85 1013.2
20260906025026 73 36 4.0 9.0 0.00 0.00 0.00 85 1013.3
20260906024527 73 13 2.0 10.0 0.00 0.00 0.00 85 1013.4
20260906024025 73 31 2.0 12.0 0.00 0.00 0.00 85 1013.3
20260906023526 73 25 6.0 12.0 0.00 0.00 0.00 85 1013.4
20260906023026 74 360 6.0 10.0 0.00 0.00 0.00 85 1013.4
20260906022525 74 21 5.0 11.0 0.00 0.00 0.00 85 1013.4
20260906022024 74 15 6.0 11.0 0.00 0.00 0.00 84 1013.3
20260906021524 74 19 6.0 12.0 0.00 0.00 0.00 84 1013.3
20260906021026 74 27 7.0 12.0 0.00 0.00 0.00 84 1013.3
20260906020524 74 5 5.0 12.0 0.00 0.00 0.00 84 1013.4
20260906020024 74 28 5.0 10.0 0.00 0.00 0.00 84 1013.3
20260906015523 74 338 6.0 11.0 0.00 0.00 0.00 84 1013.2
20260906015022 74 22 4.0 11.0 0.00 0.00 0.00 84 1013.2
20260906014538 74 31 5.0 9.0 0.00 0.00 0.00 85 1013.1
20260906014021 74 36 5.0 9.0 0.00 0.00 0.00 85 1013.1
20260906013526 74 27 3.0 9.0 0.00 0.00 0.00 85 1013.1
20260906013024 74 32 4.0 8.0 0.00 0.00 0.00 86 1013.0
20260906012520 74 23 2.0 7.0 0.00 0.00 0.00 87 1013.0
20260906012019 74 5 3.0 6.0 0.00 0.00 0.00 87 1013.0
20260906011519 74 25 3.0 6.0 0.00 0.00 0.00 86 1012.9
20260906011018 74 28 2.0 6.0 0.00 0.00 0.00 86 1012.9
20260906010524 74 5 2.0 6.0 0.00 0.00 0.00 86 1012.9
20260906010039 74 24 3.0 6.0 0.00 0.00 0.00 86 1012.9
20260906005518 74 17 1.0 5.0 0.00 0.00 0.00 86 1012.9
20260906005021 74 5 0.0 5.0 0.00 0.00 0.00 86 1012.7
20260906004516 75 28 0.0 4.0 0.00 0.00 0.00 85 1012.6
20260906004015 75 34 0.0 6.0 0.00 0.00 0.00 84 1012.5
20260906003515 75 48 3.0 8.0 0.00 0.00 0.00 84 1012.4
20260906003015 76 32 2.0 8.0 0.00 0.00 0.00 84 1012.3
20260906002513 76 19 2.0 6.0 0.00 0.00 0.00 84 1012.2
20260906002013 76 24 1.0 4.0 0.00 0.00 0.00 84 1012.1
20260906001512 76 43 1.0 3.0 0.00 0.00 0.00 83 1012.1
20260906001015 77 47 0.0 4.0 0.00 0.00 0.00 82 1012.1
20260906000513 77 79 0.0 5.0 0.00 0.00 0.00 82 1012.0
20260906000013 77 57 1.0 5.0 0.00 0.00 0.00 81 1012.0
20260905235512 78 45 2.0 6.0 0.00 0.00 0.00 80 1012.1
20260905235015 78 26 3.0 7.0 0.00 0.00 0.00 80 1012.2
20260905234512 78 40 2.0 7.0 0.00 0.00 0.00 80 1012.2
20260905234013 79 24 3.0 7.0 0.00 0.00 0.00 79 1012.1
20260905233512 79 19 3.0 9.0 0.00 0.00 0.00 79 1012.1
20260905233013 79 5 5.0 9.0 0.00 0.00 0.00 77 1012.0
20260905232515 80 26 4.0 8.0 0.00 0.00 0.00 77 1012.0
20260905232010 80 5 5.0 8.0 0.00 0.00 0.00 77 1012.0
20260905231510 80 5 3.0 9.0 0.00 0.00 0.00 77 1012.0
20260905231011 80 20 3.0 11.0 0.00 0.00 0.00 77 1011.9
20260905230508 80 317 5.0 13.0 0.00 0.00 0.00 76 1011.7
20260905230008 81 355 6.0 13.0 0.00 0.00 0.00 75 1011.6
20260905225508 81 5 5.0 11.0 0.00 0.00 0.00 76 1011.7
20260905225008 81 12 6.0 14.0 0.00 0.00 0.00 75 1011.8
20260905224508 81 15 6.0 14.0 0.00 0.00 0.00 76 1011.7
20260905224012 82 355 7.0 13.0 0.00 0.00 0.00 74 1011.7
20260905223507 82 346 8.0 13.0 0.00 0.00 0.00 74 1011.5
20260905223017 82 360 7.0 13.0 0.00 0.00 0.00 74 1011.4
20260905222508 83 13 6.0 13.0 0.00 0.00 0.00 74 1011.4
20260905222007 83 18 8.0 13.0 0.00 0.00 0.00 73 1011.4
20260905221506 84 9 6.0 11.0 0.00 0.00 0.00 74 1011.4
20260905221007 84 355 7.0 13.0 0.00 0.00 0.00 72 1011.4
20260905220506 84 355 7.0 13.0 0.00 0.00 0.00 73 1011.4
20260905220006 84 360 4.0 9.0 0.00 0.00 0.00 73 1011.4
20260905215510 84 12 5.0 11.0 0.00 0.00 0.00 73 1011.4
20260905215008 84 355 6.0 12.0 0.00 0.00 0.00 72 1011.3
20260905214508 84 15 6.0 12.0 0.00 0.00 0.00 72 1011.2
20260905214006 84 343 7.0 13.0 0.00 0.00 0.00 72 1011.1
20260905213505 84 42 6.0 13.0 0.00 0.00 0.00 73 1011.1
20260905213007 85 13 7.0 13.0 0.00 0.00 0.00 72 1011.1
20260905212505 85 23 8.0 13.0 0.00 0.00 0.00 72 1011.1
20260905212006 85 46 5.0 12.0 0.00 0.00 0.00 72 1011.1
20260905211515 85 26 7.0 13.0 0.00 0.00 0.00 71 1011.0
20260905211004 86 20 7.0 13.0 0.00 0.00 0.00 71 1011.0
20260905210504 86 28 3.0 14.0 0.00 0.00 0.00 73 1011.0
20260905210004 86 25 6.0 14.0 0.00 0.00 0.00 71 1011.0
20260905205503 86 5 7.0 13.0 0.00 0.00 0.00 72 1011.1
20260905205003 87 22 5.0 12.0 0.00 0.00 0.00 71 1011.0
20260905204503 87 22 7.0 15.0 0.00 0.00 0.00 70 1011.1
20260905204005 87 350 8.0 15.0 0.00 0.00 0.00 70 1011.1
20260905203502 87 355 8.0 13.0 0.00 0.00 0.00 69 1011.0
20260905203003 87 49 7.0 13.0 0.00 0.00 0.00 70 1011.0
20260905202506 87 40 8.0 13.0 0.00 0.00 0.00 69 1011.1
20260905202001 88 47 7.0 13.0 0.00 0.00 0.00 69 1011.0
20260905201503 88 27 5.0 12.0 0.00 0.00 0.00 71 1011.1
20260905201002 88 5 7.0 12.0 0.00 0.00 0.00 69 1011.1
20260905200502 88 27 5.0 12.0 0.00 0.00 0.00 69 1011.0
20260905195601 89 5 7.0 11.0 0.00 0.00 0.00 68 1011.1
20260905195100 89 5 5.0 10.0 0.00 0.00 0.00 70 1011.0
20260905194600 89 19 4.0 11.0 0.00 0.00 0.00 70 1011.0
20260905194100 89 22 6.0 11.0 0.00 0.00 0.00 69 1011.0
20260905193559 89 323 4.0 10.0 0.00 0.00 0.00 72 1010.9
20260905193059 88 5 3.0 12.0 0.00 0.00 0.00 71 1010.9
20260905192600 89 15 6.0 12.0 0.00 0.00 0.00 68 1011.0
20260905192059 89 29 5.0 11.0 0.00 0.00 0.00 69 1011.0
20260905191558 89 15 5.0 11.0 0.00 0.00 0.00 69 1011.1
20260905191058 89 16 5.0 10.0 0.00 0.00 0.00 68 1011.1
20260905190558 89 355 5.0 10.0 0.00 0.00 0.00 69 1011.1
20260905185557 89 348 3.0 9.0 0.00 0.00 0.00 69 1011.2
20260905185059 89 360 4.0 9.0 0.00 0.00 0.00 70 1011.4
20260905184604 89 26 5.0 9.0 0.00 0.00 0.00 70 1011.3
20260905184058 89 338 4.0 8.0 0.00 0.00 0.00 72 1011.3
20260905183556 89 337 5.0 8.0 0.00 0.00 0.00 72 1011.5
20260905183110 89 355 3.0 8.0 0.00 0.00 0.00 73 1011.5
20260905182556 89 41 4.0 9.0 0.00 0.00 0.00 72 1011.3
20260905182055 89 19 4.0 9.0 0.00 0.00 0.00 72 1011.4
20260905181555 89 35 5.0 9.0 0.00 0.00 0.00 71 1011.3
20260905181054 89 30 4.0 9.0 0.00 0.00 0.00 73 1011.3
20260905180554 89 360 5.0 8.0 0.00 0.00 0.00 73 1011.3
20260905180056 89 33 4.0 8.0 0.00 0.00 0.00 72 1011.3
20260905175554 89 360 4.0 10.0 0.00 0.00 0.00 74 1011.4
20260905175054 89 23 4.0 10.0 0.00 0.00 0.00 74 1011.3
20260905174553 89 335 4.0 10.0 0.00 0.00 0.00 74 1011.3
20260905174057 89 34 5.0 10.0 0.00 0.00 0.00 75 1011.3
20260905173553 89 9 6.0 10.0 0.00 0.00 0.00 73 1011.3
20260905173052 90 42 4.0 9.0 0.00 0.00 0.00 72 1011.3
20260905172555 90 53 2.0 8.0 0.00 0.00 0.00 72 1011.4
20260905172052 90 23 4.0 8.0 0.00 0.00 0.00 73 1011.4
20260905171553 90 35 3.0 7.0 0.00 0.00 0.00 74 1011.4
20260905171050 89 340 4.0 8.0 0.00 0.00 0.00 74 1011.5
20260905170550 90 13 4.0 8.0 0.00 0.00 0.00 75 1011.5
20260905165554 89 355 4.0 8.0 0.00 0.00 0.00 74 1011.6
20260905165049 89 22 4.0 9.0 0.00 0.00 0.00 77 1011.7
20260905164552 89 53 5.0 10.0 0.00 0.00 0.00 74 1011.8
20260905164048 89 5 5.0 10.0 0.00 0.00 0.00 75 1011.8
20260905163549 89 330 5.0 10.0 0.00 0.00 0.00 75 1011.8
20260905163048 89 5 3.0 10.0 0.00 0.00 0.00 77 1011.7
20260905162548 89 355 4.0 9.0 0.00 0.00 0.00 77 1011.6
20260905162046 88 350 4.0 9.0 0.00 0.00 0.00 76 1011.7
20260905161546 89 348 4.0 8.0 0.00 0.00 0.00 76 1011.6
20260905161046 89 360 4.0 9.0 0.00 0.00 0.00 77 1011.6
20260905160545 89 334 5.0 9.0 0.00 0.00 0.00 76 1011.5
20260905160046 89 360 3.0 8.0 0.00 0.00 0.00 78 1011.4
20260905155545 89 15 3.0 8.0 0.00 0.00 0.00 78 1011.4
20260905155043 89 10 3.0 6.0 0.00 0.00 0.00 79 1011.5
20260905154544 88 319 3.0 7.0 0.00 0.00 0.00 78 1011.6
20260905154043 88 5 3.0 7.0 0.00 0.00 0.00 79 1011.6
20260905153541 88 333 2.0 7.0 0.00 0.00 0.00 79 1011.5
20260905153040 87 12 3.0 7.0 0.00 0.00 0.00 79 1011.4
20260905152541 87 296 3.0 7.0 0.00 0.00 0.00 81 1011.4
20260905152040 87 47 1.0 7.0 0.00 0.00 0.00 82 1011.4
20260905151538 86 30 4.0 7.0 0.00 0.00 0.00 80 1011.2
20260905151036 86 36 3.0 5.0 0.00 0.00 0.00 82 1011.3
20260905150537 86 30 3.0 6.0 0.00 0.00 0.00 81 1011.3
20260905150037 86 360 2.0 6.0 0.00 0.00 0.00 80 1011.3
20260905145537 86 355 3.0 6.0 0.00 0.00 0.00 80 1011.3
20260905145036 86 13 3.0 6.0 0.00 0.00 0.00 80 1011.3
20260905144537 87 5 4.0 7.0 0.00 0.00 0.00 79 1011.2
20260905144035 86 335 3.0 7.0 0.00 0.00 0.00 80 1011.1
20260905143540 86 360 2.0 6.0 0.00 0.00 0.00 81 1011.1
20260905143035 86 342 2.0 5.0 0.00 0.00 0.00 81 1011.1
20260905142535 86 355 2.0 6.0 0.00 0.00 0.00 80 1011.0
20260905142033 86 5 3.0 6.0 0.00 0.00 0.00 81 1011.0
20260905141532 86 15 2.0 5.0 0.00 0.00 0.00 81 1010.9
20260905141033 85 336 0.0 4.0 0.00 0.00 0.00 83 1011.0
20260905140530 85 288 1.0 4.0 0.00 0.00 0.00 83 1011.1
20260905140029 84 349 0.0 3.0 0.00 0.00 0.00 86 1011.1
20260905135529 83 288 0.0 3.0 0.00 0.00 0.00 86 1011.3
20260905135027 83 309 0.0 3.0 0.00 0.00 0.00 86 1011.4
20260905134530 83 289 0.0 4.0 0.00 0.00 0.00 87 1011.6
20260905134025 82 269 0.0 4.0 0.00 0.00 0.00 86 1011.5
20260905133523 82 242 1.0 4.0 0.00 0.00 0.00 87 1011.3
20260905133022 82 249 0.0 0.0 0.00 0.00 0.00 90 1011.2
20260905132520 81 249 0.0 0.0 0.00 0.00 0.00 90 1011.2
20260905132019 80 220 0.0 0.0 0.00 0.00 0.00 92 1011.0
20260905131518 79 220 0.0 1.0 0.00 0.00 0.00 93 1011.0
20260905131018 79 211 0.0 2.0 0.00 0.00 0.00 95 1011.0
20260905130515 78 68 0.0 2.0 0.00 0.00 0.00 96 1010.9
20260905130014 78 68 0.0 1.0 0.00 0.00 0.00 96 1010.8
20260905125512 77 68 0.0 2.0 0.00 0.00 0.00 96 1010.8
20260905125013 76 68 0.0 2.0 0.00 0.00 0.00 96 1010.8
20260905124516 75 24 0.0 1.0 0.00 0.00 0.00 96 1010.8
20260905124012 75 24 0.0 0.0 0.00 0.00 0.00 96 1010.7
20260905123512 75 24 0.0 0.0 0.00 0.00 0.00 96 1010.7
20260905123012 74 24 0.0 0.0 0.00 0.00 0.00 95 1010.7
20260905122512 74 24 0.0 0.0 0.00 0.00 0.00 95 1010.8
20260905122012 74 24 0.0 0.0 0.00 0.00 0.00 96 1010.7
20260905121512 74 24 0.0 0.0 0.00 0.00 0.00 95 1010.7
20260905121012 73 24 0.0 0.0 0.00 0.00 0.00 96 1010.7
20260905120512 73 24 0.0 0.0 0.00 0.00 0.00 95 1010.6
20260905120010 73 24 0.0 0.0 0.00 0.00 0.00 95 1010.6
20260905115511 73 24 0.0 0.0 0.00 0.00 0.00 95 1010.5
20260905115011 73 24 0.0 0.0 0.00 0.00 0.00 95 1010.5
20260905114510 73 24 0.0 0.0 0.00 0.00 0.00 95 1010.4
20260905114010 72 24 0.0 0.0 0.00 0.00 0.00 95 1010.4
20260905113510 72 24 0.0 0.0 0.00 0.00 0.00 95 1010.5
20260905113010 72 24 0.0 0.0 0.00 0.00 0.00 95 1010.6
20260905112510 72 24 0.0 0.0 0.00 0.00 0.00 94 1010.6
20260905112008 72 24 0.0 0.0 0.00 0.00 0.00 94 1010.5
20260905111513 72 24 0.0 0.0 0.00 0.00 0.00 94 1010.4